TimeEDT,TemperatureF,Dew PointF,Humidity,Sea Level PressureIn,VisibilityMPH,Wind Direction,Wind SpeedMPH,Gust SpeedMPH,PrecipitationIn,Events,Conditions,WindDirDegrees,DateUTC
12:15 AM,34.9,34.9,100,30.15,10.0,Calm,Calm,-,N/A,,Clear,0,2013-10-28 04:15:00
12:35 AM,36.7,36.7,100,30.15,10.0,Calm,Calm,-,N/A,,Clear,0,2013-10-28 04:35:00
12:55 AM,35.8,35.8,100,30.15,10.0,Calm,Calm,-,N/A,,Clear,0,2013-10-28 04:55:00
1:15 AM,35.6,35.6,100,30.15,10.0,Calm,Calm,-,N/A,,Clear,0,2013-10-28 05:15:00
1:35 AM,34.7,34.7,100,30.14,10.0,Calm,Calm,-,N/A,,Clear,0,2013-10-28 05:35:00
1:55 AM,33.1,33.1,100,30.14,7.0,Calm,Calm,-,N/A,,Clear,0,2013-10-28 05:55:00
2:15 AM,34.2,34.2,100,30.14,5.0,Calm,Calm,-,N/A,,Clear,0,2013-10-28 06:15:00
2:35 AM,34.9,34.9,100,30.15,10.0,Calm,Calm,-,N/A,,Clear,0,2013-10-28 06:35:00
2:55 AM,33.4,33.4,100,30.14,7.0,Calm,Calm,-,N/A,,Clear,0,2013-10-28 06:55:00
3:15 AM,33.1,33.1,100,30.15,7.0,Calm,Calm,-,N/A,,Clear,0,2013-10-28 07:15:00
3:35 AM,34.0,34.0,100,30.15,10.0,Calm,Calm,-,N/A,,Clear,0,2013-10-28 07:35:00
3:55 AM,32.5,32.5,100,30.15,1.0,Calm,Calm,-,N/A,,Mist,0,2013-10-28 07:55:00
4:15 AM,32.0,32.0,100,30.15,5.0,Calm,Calm,-,N/A,,Clear,0,2013-10-28 08:15:00
4:35 AM,32.5,32.5,100,30.16,3.0,Calm,Calm,-,N/A,,Clear,0,2013-10-28 08:35:00
4:55 AM,32.0,32.0,100,30.16,4.0,Calm,Calm,-,N/A,,Clear,0,2013-10-28 08:55:00
5:15 AM,32.0,32.0,100,30.16,4.0,Calm,Calm,-,N/A,,Clear,0,2013-10-28 09:15:00
5:35 AM,32.0,32.0,100,30.17,7.0,Calm,Calm,-,N/A,,Clear,0,2013-10-28 09:35:00
5:55 AM,32.5,32.5,100,30.17,5.0,Calm,Calm,-,N/A,,Clear,0,2013-10-28 09:55:00
6:15 AM,32.0,32.0,100,30.18,7.0,Calm,Calm,-,N/A,,Scattered Clouds,0,2013-10-28 10:15:00
6:35 AM,32.0,32.0,100,30.18,7.0,Calm,Calm,-,N/A,,Scattered Clouds,0,2013-10-28 10:35:00
6:55 AM,32.5,32.5,100,30.18,10.0,Calm,Calm,-,N/A,,Scattered Clouds,0,2013-10-28 10:55:00
7:15 AM,32.2,32.2,100,30.19,10.0,Calm,Calm,-,N/A,,Mostly Cloudy,0,2013-10-28 11:15:00
7:35 AM,32.4,32.4,100,30.20,7.0,Calm,Calm,-,N/A,,Scattered Clouds,0,2013-10-28 11:35:00
7:55 AM,32.5,32.5,100,30.21,5.0,Calm,Calm,-,N/A,,Clear,0,2013-10-28 11:55:00
8:15 AM,33.3,33.3,100,30.22,5.0,Calm,Calm,-,N/A,,Clear,0,2013-10-28 12:15:00
8:35 AM,33.8,33.8,100,30.23,7.0,Calm,Calm,-,N/A,,Scattered Clouds,0,2013-10-28 12:35:00
8:55 AM,35.8,35.8,100,30.23,7.0,Calm,Calm,-,N/A,,Clear,0,2013-10-28 12:55:00
9:15 AM,38.7,38.7,100,30.24,10.0,Calm,Calm,-,N/A,,Clear,0,2013-10-28 13:15:00
9:35 AM,42.3,41.4,97,30.24,10.0,Calm,Calm,-,N/A,,Clear,0,2013-10-28 13:35:00
9:55 AM,45.9,42.4,88,30.25,10.0,Calm,Calm,-,N/A,,Clear,0,2013-10-28 13:55:00
10:15 AM,48.4,44.2,86,30.25,10.0,NNE,3.5,-,N/A,,Clear,20,2013-10-28 14:15:00
10:35 AM,50.2,44.8,82,30.25,10.0,ENE,3.5,-,N/A,,Clear,60,2013-10-28 14:35:00
10:55 AM,51.1,45.5,81,30.26,10.0,ENE,3.5,-,N/A,,Clear,60,2013-10-28 14:55:00
11:15 AM,52.7,46.6,80,30.25,10.0,Calm,Calm,-,N/A,,Clear,0,2013-10-28 15:15:00
11:35 AM,55.0,46.9,74,30.25,10.0,NE,4.6,-,N/A,,Clear,40,2013-10-28 15:35:00
11:55 AM,56.5,46.9,70,30.25,10.0,North,3.5,-,N/A,,Clear,10,2013-10-28 15:55:00
12:15 PM,57.4,47.5,70,30.25,10.0,NE,4.6,-,N/A,,Clear,40,2013-10-28 16:15:00
12:35 PM,58.5,47.7,67,30.25,10.0,North,3.5,-,N/A,,Clear,360,2013-10-28 16:35:00
12:55 PM,59.7,47.7,64,30.24,10.0,Calm,Calm,-,N/A,,Clear,0,2013-10-28 16:55:00
1:15 PM,61.5,47.7,60,30.22,10.0,Calm,Calm,-,N/A,,Clear,0,2013-10-28 17:15:00
1:35 PM,62.8,48.0,59,30.21,2.5,East,3.5,-,N/A,,Haze,100,2013-10-28 17:35:00
1:55 PM,64.9,48.2,55,30.20,10.0,East,3.5,-,N/A,,Clear,100,2013-10-28 17:55:00
2:15 PM,64.6,47.1,53,30.20,10.0,NNE,3.5,-,N/A,,Clear,30,2013-10-28 18:15:00
2:35 PM,64.4,46.6,52,30.19,7.0,Calm,Calm,-,N/A,,Clear,0,2013-10-28 18:35:00
2:55 PM,65.3,46.6,51,30.19,10.0,Calm,Calm,-,N/A,,Clear,0,2013-10-28 18:55:00
3:15 PM,66.6,46.6,49,30.19,10.0,WNW,3.5,-,N/A,,Clear,290,2013-10-28 19:15:00
3:35 PM,67.1,46.9,48,30.19,10.0,Calm,Calm,-,N/A,,Clear,0,2013-10-28 19:35:00
3:55 PM,66.6,46.4,48,30.20,10.0,Calm,Calm,-,N/A,,Clear,0,2013-10-28 19:55:00
4:15 PM,66.0,46.4,49,30.20,10.0,Calm,Calm,-,N/A,,Clear,0,2013-10-28 20:15:00
4:35 PM,66.2,47.7,51,30.20,10.0,SW,3.5,-,N/A,,Clear,230,2013-10-28 20:35:00
4:55 PM,66.0,47.5,51,30.20,10.0,Calm,Calm,-,N/A,,Clear,0,2013-10-28 20:55:00
5:15 PM,64.6,48.0,55,30.20,10.0,Calm,Calm,-,N/A,,Clear,0,2013-10-28 21:15:00
5:35 PM,63.3,48.0,57,30.21,10.0,Calm,Calm,-,N/A,,Clear,0,2013-10-28 21:35:00
5:55 PM,59.7,47.1,63,30.21,10.0,Calm,Calm,-,N/A,,Clear,0,2013-10-28 21:55:00
6:15 PM,53.8,46.8,77,30.21,10.0,Calm,Calm,-,N/A,,Clear,0,2013-10-28 22:15:00
6:35 PM,50.5,46.0,85,30.22,10.0,Calm,Calm,-,N/A,,Clear,0,2013-10-28 22:35:00
6:55 PM,49.6,45.7,86,30.23,10.0,Calm,Calm,-,N/A,,Clear,0,2013-10-28 22:55:00
7:15 PM,47.5,45.7,93,30.24,10.0,Calm,Calm,-,N/A,,Clear,0,2013-10-28 23:15:00
7:35 PM,46.6,45.3,95,30.24,10.0,Calm,Calm,-,N/A,,Clear,0,2013-10-28 23:35:00
7:55 PM,44.1,43.5,98,30.24,10.0,Calm,Calm,-,N/A,,Clear,0,2013-10-28 23:55:00
8:15 PM,44.8,43.5,95,30.25,10.0,Calm,Calm,-,N/A,,Clear,0,2013-10-29 00:15:00
8:35 PM,41.9,41.5,99,30.24,10.0,Calm,Calm,-,N/A,,Clear,0,2013-10-29 00:35:00
8:55 PM,42.3,41.9,99,30.24,10.0,Calm,Calm,-,N/A,,Clear,0,2013-10-29 00:55:00
9:15 PM,44.1,44.1,100,30.25,10.0,Calm,Calm,-,N/A,,Clear,0,2013-10-29 01:15:00
9:35 PM,43.0,43.0,100,30.25,10.0,Calm,Calm,-,N/A,,Clear,0,2013-10-29 01:35:00
9:55 PM,42.3,42.3,100,30.26,10.0,Calm,Calm,-,N/A,,Clear,0,2013-10-29 01:55:00
10:15 PM,42.1,42.1,100,30.27,10.0,Calm,Calm,-,N/A,,Clear,0,2013-10-29 02:15:00
10:35 PM,42.8,42.8,100,30.28,10.0,Calm,Calm,-,N/A,,Clear,0,2013-10-29 02:35:00
10:55 PM,40.5,40.5,100,30.28,10.0,Calm,Calm,-,N/A,,Clear,0,2013-10-29 02:55:00
11:15 PM,40.8,40.8,100,30.28,10.0,Calm,Calm,-,N/A,,Clear,0,2013-10-29 03:15:00
11:35 PM,38.7,38.7,100,30.28,10.0,Calm,Calm,-,N/A,,Clear,0,2013-10-29 03:35:00
11:55 PM,39.4,39.4,100,30.28,10.0,Calm,Calm,-,N/A,,Clear,0,2013-10-29 03:55:00